Погода в Кудепсте

Россия / Краснодарский край     43°29′38″N   39°53′29″E
темп.,
°C
ветер,
м/с
пор.,
м/с
влажн.,
%
обл.,
%
осадки,
мм/ч
давл.,
гПа
погр.,
м
16 апреля, пт
пт1600:00+10всв326643 0.0 101927
03:00+10всв226719 0.0 101824
06:00+9всв227632 0.1 101828
09:00+14зюз226386 0.2 1017350
12:00+15с126393 0.0 1018378
15:00+16зюз2257100 0.1 1018619
18:00+14зсз127290 0.0 101739
21:00+10зюз2282100 0.0 102037
17 апреля, сб
сб1700:00+11сз2484100 0.7 102081
03:00+11с2392100 2.1 102077
06:00+11ююв0192100 0.4 102020
09:00+11з1195100 1.0 1022224
12:00+11зсз1196100 0.8 1022180
15:00+10сз1197100 2.6 102299
18:00+11зсз1195100 1.4 102256
21:00+10юв1197100 1.4 102248
18 апреля, вс
вс1800:00+10св119497 0.0 102022
03:00+9ссв1192100 0.0 101915
06:00+11сз1289100 0.1 101835
09:00+16всв128096 0.3 1015124
12:00+16з2277100 0.3 1016242
15:00+17ссв1280100 0.8 1016172
18:00+17в1178100 0.3 101616
21:00+13всв3283100 0.7 101733
19 апреля, пн
пн1900:00+13всв2285100 0.3 101730
03:00+13всв3284100 0.5 101636
06:00+13ссв3488100 0.1 101780
09:00+15всв1185100 0.6 101639
12:00+22ююв255247 0.1 1013954
15:00+23юв2444100 0.1 1011851
18:00+20всв226997 0.0 101031
21:00+18всв4461100 0.0 100848
20 апреля, вт
вт2000:00+19в4554100 0.1 1005110
03:00+19всв5659100 0.1 1002103
06:00+13св3379100 0.0 1006106
09:00+15св3488100 0.9 100779
12:00+14зюз3491100 0.4 1010459
15:00+11ссз3787100 2.3 1013623
18:00+11с2385100 1.3 101684
21:00+11с1182100 1.4 101925